User: anonymous   Login
Location: Unspecified
(0.0000°N, 0.0000°E)
Time: 04:15:45
(UTC+00:00)
Language:

Skynet 4C - Orbit

View from above orbital plane
View from above orbital plane
View from above satellite
View from above satellite

Ground track
Ground track

The orbit data is extracted from the following two-line orbital elements,

1 20776U 90079A   18291.86262039  .00000126  00000-0  00000+0 0  9992
2 20776  13.9649  11.3480 0003394 199.4512 160.5333  1.00271569102884
Epoch (UTC): 18 October 2018 20:42:10
Eccentricity: 0.0003394
inclination: 13.9649°
perigee height: 35772 km
apogee height: 35800 km
right ascension of ascending node: 11.3480°
argument of perigee: 199.4512°
revolutions per day: 1.00271569
mean anomaly at epoch: 160.5333°
orbit number at epoch: 10288

The dashed part of the orbit path shows where the satellite is in the earth's shadow,  

DLR